• In Hungary
  • List of Countries
  • For 7 days
  • Water Temperature
  • Satellite Maps
  • Weather Map
  • News
  • Weather Widgets
  • user-avatar
    Login

    Hourly Weather Stepanakert

    Today, 24 January, Wednesday

    Time Temperature Precipitation Wind Pressure Humidity
    00:00 +7°C° 0 mm 1 mps 688 mmHg 41%
    01:00 +6°C° 0 mm 1 mps 688 mmHg 43%
    02:00 +6°C° 0 mm 1 mps 688 mmHg 45%
    03:00 +7°C° 0 mm 1 mps 688 mmHg 46%
    04:00 +6°C° 0 mm 1 mps 688 mmHg 48%
    05:00 +6°C° 0 mm 1 mps 689 mmHg 51%
    06:00 +5°C° 0 mm 1 mps 689 mmHg 53%
    07:00 +6°C° 0 mm 1 mps 690 mmHg 53%
    08:00 +7°C° 0 mm 1 mps 690 mmHg 53%
    09:00 +8°C° 0 mm 1 mps 691 mmHg 52%
    10:00 +8°C° 0 mm 1 mps 691 mmHg 50%
    11:00 +8°C° 0 mm 2 mps 691 mmHg 48%
    12:00 +9°C° 0 mm 2 mps 691 mmHg 46%
    13:00 +9°C° 0 mm 2 mps 691 mmHg 47%
    14:00 +9°C° 0 mm 2 mps 691 mmHg 47%
    15:00 +9°C° 0 mm 2 mps 692 mmHg 48%
    16:00 +8°C° 0 mm 2 mps 692 mmHg 53%
    17:00 +8°C° 0 mm 1 mps 692 mmHg 58%
    18:00 +7°C° 0 mm 1 mps 693 mmHg 63%
    19:00 +6°C° 0 mm 1 mps 693 mmHg 65%
    20:00 +6°C° 0 mm 1 mps 693 mmHg 67%
    21:00 +5°C° 0 mm 1 mps 693 mmHg 68%
    22:00 +5°C° 0 mm 1 mps 694 mmHg 72%
    23:00 +5°C° 0 mm 1 mps 694 mmHg 75%

    Tomorrow, 25 January, Thursday

    Time Temperature Precipitation Wind Pressure Humidity
    00:00 +4°C° 0 mm 1 mps 694 mmHg 78%
    01:00 +4°C° 0 mm 1 mps 694 mmHg 82%
    02:00 +3°C° 0 mm 1 mps 694 mmHg 85%
    03:00 +3°C° 0 mm 1 mps 694 mmHg 88%
    04:00 +3°C° 0 mm 1 mps 695 mmHg 89%
    05:00 +3°C° 0 mm 1 mps 695 mmHg 89%
    06:00 +3°C° 0 mm 1 mps 695 mmHg 90%
    07:00 +2°C° 0.1 mm 2 mps 695 mmHg 89%
    08:00 +2°C° 0.1 mm 2 mps 695 mmHg 87%
    09:00 +3°C° 0.1 mm 2 mps 696 mmHg 85%
    10:00 +3°C° 0.1 mm 2 mps 696 mmHg 83%
    11:00 +2°C° 0.1 mm 3 mps 696 mmHg 81%
    12:00 +3°C° 0.1 mm 3 mps 696 mmHg 79%
    13:00 +3°C° 0.1 mm 3 mps 696 mmHg 79%
    14:00 +3°C° 0.1 mm 3 mps 695 mmHg 79%
    15:00 +3°C° 0.1 mm 3 mps 695 mmHg 79%
    16:00 +2°C° 0.1 mm 3 mps 695 mmHg 81%
    17:00 +2°C° 0.1 mm 3 mps 695 mmHg 84%
    18:00 +2°C° 0.1 mm 2 mps 696 mmHg 86%
    19:00 +2°C° 0 mm 2 mps 696 mmHg 86%
    20:00 +2°C° 0 mm 2 mps 696 mmHg 87%
    21:00 +2°C° 0 mm 2 mps 696 mmHg 88%
    22:00 +2°C° 0 mm 2 mps 696 mmHg 88%
    23:00 +1°C° 0 mm 2 mps 696 mmHg 89%

    Day after tomorrow, 26 January, Friday

    Time Temperature Precipitation Wind Pressure Humidity
    00:00 +1°C° 0 mm 2 mps 695 mmHg 89%
    01:00 +1°C° 0.1 mm 2 mps 695 mmHg 89%
    02:00 +2°C° 0.1 mm 1 mps 695 mmHg 89%
    03:00 +2°C° 0.1 mm 1 mps 695 mmHg 89%
    04:00 +1°C° 0.1 mm 2 mps 695 mmHg 89%
    05:00 +1°C° 0.1 mm 2 mps 695 mmHg 89%
    06:00 +1°C° 0.1 mm 2 mps 695 mmHg 89%
    07:00 +1°C° 0.5 mm 2 mps 695 mmHg 89%
    08:00 +1°C° 0.5 mm 2 mps 695 mmHg 88%
    09:00 +1°C° 0.5 mm 2 mps 695 mmHg 87%
    10:00 +1°C° 0.5 mm 2 mps 695 mmHg 85%
    11:00 +2°C° 0.5 mm 2 mps 695 mmHg 83%
    12:00 +2°C° 0.5 mm 2 mps 695 mmHg 82%
    13:00 +2°C° 0.3 mm 2 mps 695 mmHg 81%
    14:00 +2°C° 0.3 mm 2 mps 695 mmHg 80%
    15:00 +2°C° 0.3 mm 2 mps 695 mmHg 80%
    16:00 +2°C° 0.2 mm 2 mps 695 mmHg 82%
    17:00 +2°C° 0.2 mm 2 mps 695 mmHg 85%
    18:00 +1°C° 0.2 mm 2 mps 695 mmHg 87%
    19:00 +1°C° 0.2 mm 2 mps 695 mmHg 88%
    20:00 +1°C° 0.2 mm 2 mps 695 mmHg 88%
    21:00 +1°C° 0.2 mm 2 mps 696 mmHg 89%
    22:00 +1°C° 0.2 mm 2 mps 696 mmHg 89%
    23:00 +1°C° 0.2 mm 2 mps 696 mmHg 89%

    27 January, Saturday

    Time Temperature Precipitation Wind Pressure Humidity
    00:00 +1°C° 0.2 mm 2 mps 696 mmHg 89%
    01:00 -1°C° 0.2 mm 2 mps 696 mmHg 89%
    02:00 -1°C° 0.2 mm 2 mps 696 mmHg 89%
    03:00 -1°C° 0.2 mm 2 mps 696 mmHg 90%
    04:00 -1°C° 0.2 mm 2 mps 696 mmHg 90%
    05:00 -1°C° 0.2 mm 2 mps 696 mmHg 90%
    06:00 -1°C° 0.2 mm 2 mps 696 mmHg 90%
    07:00 -1°C° 0.2 mm 2 mps 696 mmHg 88%
    08:00 -1°C° 0.2 mm 2 mps 697 mmHg 86%
    09:00 +1°C° 0.2 mm 2 mps 697 mmHg 84%
    10:00 0°C° 0.2 mm 3 mps 697 mmHg 81%
    11:00 0°C° 0.2 mm 3 mps 697 mmHg 79%
    12:00 +1°C° 0.2 mm 3 mps 697 mmHg 77%
    13:00 +1°C° 0.2 mm 3 mps 697 mmHg 77%
    14:00 +1°C° 0.2 mm 3 mps 697 mmHg 77%
    15:00 +1°C° 0.2 mm 3 mps 697 mmHg 76%
    16:00 0°C° 0.2 mm 3 mps 698 mmHg 79%
    17:00 -1°C° 0.2 mm 3 mps 698 mmHg 82%
    18:00 -1°C° 0.2 mm 3 mps 698 mmHg 85%
    19:00 -2°C° 0.3 mm 3 mps 699 mmHg 86%
    20:00 -2°C° 0.3 mm 3 mps 699 mmHg 86%
    21:00 -2°C° 0.3 mm 3 mps 700 mmHg 87%
    22:00 -4°C° 0.3 mm 3 mps 700 mmHg 87%
    23:00 -4°C° 0.3 mm 3 mps 700 mmHg 87%

    28 January, Sunday

    Time Temperature Precipitation Wind Pressure Humidity
    00:00 -3°C° 0.3 mm 2 mps 700 mmHg 87%
    01:00 -3°C° 0.2 mm 2 mps 700 mmHg 86%
    02:00 -3°C° 0.2 mm 2 mps 700 mmHg 85%
    03:00 -4°C° 0.2 mm 2 mps 700 mmHg 84%
    04:00 -4°C° 0.1 mm 2 mps 701 mmHg 84%
    05:00 -4°C° 0.1 mm 2 mps 701 mmHg 84%
    06:00 -4°C° 0.1 mm 2 mps 701 mmHg 83%
    07:00 -4°C° 0.1 mm 2 mps 701 mmHg 81%
    08:00 -3°C° 0.1 mm 2 mps 702 mmHg 79%
    09:00 -3°C° 0.1 mm 2 mps 702 mmHg 76%
    10:00 -2°C° 0.1 mm 2 mps 702 mmHg 74%
    11:00 -1°C° 0.1 mm 2 mps 702 mmHg 71%
    12:00 -1°C° 0.1 mm 2 mps 702 mmHg 68%
    13:00 -1°C° 0.1 mm 2 mps 702 mmHg 69%
    14:00 -1°C° 0.1 mm 2 mps 701 mmHg 69%
    15:00 0°C° 0.1 mm 3 mps 701 mmHg 70%
    16:00 -1°C° 0 mm 2 mps 701 mmHg 74%
    17:00 -2°C° 0 mm 2 mps 701 mmHg 78%
    18:00 -3°C° 0 mm 2 mps 702 mmHg 83%
    19:00 -3°C° 0 mm 2 mps 702 mmHg 82%
    20:00 -2°C° 0 mm 1 mps 702 mmHg 80%
    21:00 -2°C° 0 mm 1 mps 702 mmHg 79%
    22:00 -2°C° 0 mm 1 mps 702 mmHg 78%
    23:00 -3°C° 0 mm 1 mps 701 mmHg 77%

    29 January, Monday

    Time Temperature Precipitation Wind Pressure Humidity
    00:00 -3°C° 0 mm 1 mps 701 mmHg 76%
    01:00 -3°C° 0 mm 1 mps 701 mmHg 75%
    02:00 -3°C° 0 mm 1 mps 701 mmHg 74%
    03:00 -4°C° 0 mm 1 mps 700 mmHg 73%
    04:00 -4°C° 0 mm 1 mps 700 mmHg 72%
    05:00 -4°C° 0 mm 1 mps 700 mmHg 71%
    06:00 -4°C° 0 mm 1 mps 700 mmHg 71%
    07:00 -3°C° 0 mm 1 mps 700 mmHg 68%
    08:00 -2°C° 0 mm 1 mps 700 mmHg 65%
    09:00 -1°C° 0 mm 1 mps 700 mmHg 62%
    10:00 0°C° 0 mm 1 mps 700 mmHg 59%
    11:00 0°C° 0 mm 1 mps 699 mmHg 57%
    12:00 +1°C° 0 mm 1 mps 699 mmHg 54%
    13:00 +1°C° 0 mm 1 mps 698 mmHg 55%
    14:00 +1°C° 0 mm 1 mps 697 mmHg 56%
    15:00 +2°C° 0 mm 1 mps 697 mmHg 57%
    16:00 0°C° 0 mm 1 mps 697 mmHg 63%
    17:00 -1°C° 0 mm 1 mps 697 mmHg 68%
    18:00 -3°C° 0 mm 0 mps 696 mmHg 73%
    19:00 -2°C° 0 mm 1 mps 696 mmHg 72%
    20:00 -2°C° 0 mm 1 mps 696 mmHg 71%
    21:00 -2°C° 0 mm 1 mps 696 mmHg 70%
    22:00 -2°C° 0 mm 1 mps 696 mmHg 69%
    23:00 -2°C° 0 mm 1 mps 696 mmHg 69%
    Show more